[[{"header":{"parameterUnit":"m.s-1","parameterCategory":1,"la1":30.2991,"la2":30.254,"lo1":-89.0895,"lo2":-89.0444,"dx":0.0017,"dy":0.0017,"nx":28,"ny":28,"refTime":"2022-11-15T09:00:00:Z","depth":0,"parameterNumber":2,"parameterNumberName":"U-component_of_WINDS"},"data":[0,0,0,0,0,0,0,0,0,0,0,0,0,0,0,0,0,0,0,0,0,0,0,0,0,0,0,0,0,0,0,0,0,0,0,0,0,0,0,0,0,0,0,0,0,0,0,0,0,0,0,0,0,0,0,0,0,0,-0.4438,-0.4439,0,-0.4512,-0.4513,-0.4514,-0.4482,-0.448,-0.4479,-0.4477,-0.4555,-0.4559,-0.4563,0,0,0,0,0,0,0,0,0,0,0,0,0,-0.427,-0.4273,-0.4438,-0.4439,-0.444,-0.4512,-0.4513,-0.4514,-0.4482,-0.448,-0.4478,-0.4476,-0.4554,-0.4559,-0.4563,0,0,0,0,0,0,0,0,0,0,0,0,0,-0.4343,-0.4274,-0.4438,-0.4433,-0.4433,-0.4512,-0.4513,-0.4514,-0.4483,-0.448,-0.4478,-0.4475,-0.4553,-0.4558,-0.4564,-0.4653,0,0,-0.4581,-0.4584,0,0,0,0,0,0,0,0,-0.4339,-0.4349,-0.4432,-0.4433,-0.4434,-0.4485,-0.4482,-0.4561,-0.4484,-0.4464,-0.4477,-0.4474,-0.4534,-0.4541,-0.4561,-0.4657,-0.466,-0.4582,-0.4585,-0.4588,-0.4589,0,0,0,0,0,0,0,-0.4334,-0.4346,-0.4467,-0.4434,-0.4434,-0.4427,-0.4434,-0.4497,-0.4514,-0.4466,-0.4463,-0.4472,-0.4534,-0.4556,-0.4563,-0.4661,-0.4581,-0.4587,-0.459,-0.4592,-0.4832,-0.4835,0,0,0,0,0,0,-0.4329,-0.4342,-0.4465,-0.447,-0.4379,-0.4432,-0.444,-0.4471,-0.4513,-0.4516,-0.4475,-0.4471,-0.4548,-0.4556,-0.4566,-0.4673,-0.4587,-0.4593,-0.4596,-0.4829,-0.4833,-0.4836,0,0,0,0,0,0,-0.4325,-0.434,-0.4462,-0.4405,-0.442,-0.4438,-0.4473,-0.4474,-0.4496,-0.452,-0.4523,-0.4494,-0.4546,-0.4558,-0.4631,-0.4675,-0.4595,-0.46,-0.4825,-0.483,-0.4834,-0.4887,0,0,0,0,0,0,-0.4321,-0.4339,-0.4373,-0.4406,-0.4423,-0.4526,-0.4475,-0.4478,-0.4506,-0.4501,-0.4539,-0.4542,-0.4545,-0.4623,-0.4637,-0.4681,-0.4605,-0.4822,-0.4827,-0.4833,-0.4882,-0.4893,-0.4903,0,0,0,0,0,-0.4315,-0.4386,-0.4375,-0.439,-0.4466,-0.4529,-0.4539,-0.4539,-0.4509,-0.4544,-0.4558,-0.4541,-0.4667,-0.4631,-0.4646,-0.4693,-0.4819,-0.4826,-0.4832,-0.4877,-0.4891,-0.4903,0,0,0,0,0,0,-0.4359,-0.439,-0.4379,-0.4463,-0.4493,-0.4523,-0.4567,-0.4554,-0.4595,-0.4589,-0.4588,-0.4597,-0.4673,-0.469,-0.4648,-0.4781,-0.4738,-0.4749,-0.4767,-0.4781,-0.4791,-0.4786,-0.461,0,0,0,0,0,-0.4378,-0.4426,-0.4451,-0.4523,-0.4538,-0.455,-0.4577,-0.4575,-0.4607,-0.462,-0.464,-0.4673,-0.4719,-0.475,-0.4795,-0.4883,-0.4891,-0.4923,-0.4933,-0.4941,-0.4951,-0.4998,-0.5013,-0.4858,-0.4858,-0.4857,0,0,-0.442,-0.4442,-0.4473,-0.4532,-0.4556,-0.4605,-0.4561,-0.4616,-0.4653,-0.4629,-0.4699,-0.4715,-0.4751,-0.4832,-0.4868,-0.4848,-0.4995,-0.495,-0.4957,-0.4962,-0.5007,-0.5022,-0.5035,-0.4862,-0.4861,-0.4861,0,0,-0.452,-0.4542,-0.4604,-0.4627,-0.4663,-0.467,-0.4684,-0.4716,-0.4725,-0.4795,-0.4778,-0.4821,-0.4902,-0.4928,-0.4952,-0.5059,-0.5045,-0.5073,-0.5129,-0.5175,-0.5187,-0.5198,-0.5237,-0.5251,-0.5082,-0.5082,-0.5082,0,-0.4567,-0.4641,-0.4638,-0.4694,-0.472,-0.4698,-0.4761,-0.4784,-0.4832,-0.4851,-0.4827,-0.4927,-0.4949,-0.5036,-0.5062,-0.5081,-0.5098,-0.5071,-0.5186,-0.5197,-0.5207,-0.5244,-0.5258,-0.5086,-0.5085,-0.5085,-0.5084,0,-0.4698,-0.4749,-0.4795,-0.4841,-0.4872,-0.4931,-0.4936,-0.4968,-0.4962,-0.4971,-0.5043,-0.5068,-0.5117,-0.5137,-0.5132,-0.5222,-0.5209,-0.5185,-0.5143,-0.5225,-0.526,-0.5274,-0.509,-0.5089,-0.5088,-0.5087,0,0,-0.4832,-0.4873,-0.489,-0.491,-0.4946,-0.4986,-0.5043,-0.5089,-0.5117,-0.515,-0.5199,-0.5266,-0.5244,-0.527,-0.5268,-0.5308,-0.5391,-0.5279,-0.528,-0.53,-0.5493,-0.5512,-0.5528,-0.538,-0.5383,-0.5385,-0.549,0,-0.4936,-0.5037,-0.5034,-0.5128,-0.5175,-0.5153,-0.5202,-0.523,-0.5239,-0.5281,-0.529,-0.5339,-0.5305,-0.5321,-0.536,-0.5373,-0.543,-0.5365,-0.5427,-0.5429,-0.5421,-0.5546,-0.5567,-0.5665,-0.5504,-0.5506,-0.5508,0,-0.5073,-0.5109,-0.5207,-0.5234,-0.5254,-0.5299,-0.5341,-0.538,-0.541,-0.5414,-0.5442,-0.5432,-0.549,-0.5444,-0.5524,-0.548,-0.5504,-0.5514,-0.5518,-0.5526,-0.5475,-0.5559,-0.5696,-0.5712,-0.5529,-0.5527,-0.5526,0,-0.5162,-0.5235,-0.5303,-0.5321,-0.5354,-0.5386,-0.5402,-0.5429,-0.5456,-0.5492,-0.551,-0.5552,-0.5576,-0.5609,-0.5611,-0.5577,-0.5691,-0.5646,-0.5697,-0.5697,-0.5725,-0.5723,-0.5869,-0.5737,-0.5737,-0.5736,-0.5736,0,-0.5281,-0.5342,-0.5344,-0.5386,-0.5454,-0.5449,-0.5516,-0.5528,-0.5552,-0.5596,-0.5578,-0.562,-0.5618,-0.5661,-0.5662,-0.5728,-0.5738,-0.5743,-0.5744,-0.5746,-0.5746,-0.5764,-0.5758,-0.574,-0.5739,-0.5739,-0.5738,0,-0.5394,-0.5397,-0.547,-0.5495,-0.5502,-0.5551,-0.5572,-0.5612,-0.5618,-0.5673,-0.5686,-0.5697,-0.5745,-0.5749,-0.5805,-0.5806,-0.5886,-0.5878,-0.5876,-0.5876,-0.5927,-0.5923,-0.6092,-0.6114,-0.5965,-0.5967,-0.5968,0,-0.547,-0.5517,-0.5545,-0.5573,-0.559,-0.5635,-0.5662,-0.5658,-0.5687,-0.5723,-0.5759,-0.5805,-0.5843,-0.5921,-0.5933,-0.5976,-0.597,-0.6026,-0.5976,-0.5977,-0.5972,-0.597,-0.5975,-0.6037,-0.6038,-0.6039,-0.6041,0,-0.5606,-0.5605,-0.5645,-0.5685,-0.5718,-0.5749,-0.5779,-0.5802,-0.5802,-0.5835,-0.5884,-0.5913,-0.5969,-0.6015,-0.6056,-0.6072,-0.6057,-0.6055,-0.607,-0.6074,-0.6072,-0.6075,-0.5905,-0.6052,-0.6051,-0.605,-0.605,-0.6049,-0.5704,-0.5744,-0.577,-0.5815,-0.5836,-0.5863,-0.5901,-0.5911,-0.5952,-0.5997,-0.5991,-0.6045,-0.6072,-0.6125,-0.6144,-0.6186,-0.6167,-0.6188,-0.6193,-0.6199,-0.6205,-0.6063,-0.6193,-0.6193,-0.6193,-0.6192,-0.6192,0,-0.584,-0.5855,-0.5896,-0.5937,-0.5972,-0.5951,-0.5982,-0.6013,-0.6061,-0.6086,-0.6122,-0.6177,-0.6222,-0.6236,-0.6279,-0.631,-0.6304,-0.6321,-0.632,-0.6324,-0.6219,-0.6203,-0.6325,-0.6325,-0.6325,-0.6325,-0.6325,-0.6325,-0.5916,-0.5982,-0.5983,-0.6059,-0.6073,-0.6126,-0.6145,-0.617,-0.619,-0.6252,-0.6288,-0.6297,-0.6318,-0.6362,-0.6401,-0.6404,-0.6421,-0.6442,-0.6443,-0.6345,-0.6332,-0.6319,-0.6304,-0.6446,-0.6446,-0.6544,-0.6545,-0.6546]},{"header":{"parameterUnit":"m.s-1","parameterCategory":1,"la1":30.2991,"la2":30.254,"lo1":-89.0895,"lo2":-89.0444,"dx":0.0017,"dy":0.0017,"nx":28,"ny":28,"refTime":"2022-11-15T09:00:00:Z","depth":0,"parameterNumber":3,"parameterNumberName":"V-component_of_WINDS"},"data":[0,0,0,0,0,0,0,0,0,0,0,0,0,0,0,0,0,0,0,0,0,0,0,0,0,0,0,0,0,0,0,0,0,0,0,0,0,0,0,0,0,0,0,0,0,0,0,0,0,0,0,0,0,0,0,0,0,0,-6.7473,-6.7474,0,-6.7632,-6.7634,-6.7636,-6.7569,-6.7565,-6.7561,-6.7558,-6.7716,-6.7724,-6.7732,0,0,0,0,0,0,0,0,0,0,0,0,0,-6.7105,-6.7112,-6.7472,-6.7475,-6.7477,-6.7632,-6.7634,-6.7636,-6.757,-6.7565,-6.756,-6.7556,-6.7714,-6.7723,-6.7732,0,0,0,0,0,0,0,0,0,0,0,0,0,-6.7264,-6.7114,-6.7472,-6.7462,-6.7463,-6.7631,-6.7634,-6.7637,-6.757,-6.7565,-6.7559,-6.7554,-6.7711,-6.7722,-6.7734,-6.792,0,0,-6.7769,-6.7774,0,0,0,0,0,0,0,0,-6.7255,-6.7278,-6.7462,-6.7463,-6.7464,-6.7575,-6.7562,-6.7732,-6.7572,-6.753,-6.7558,-6.7551,-6.7674,-6.7688,-6.773,-6.7927,-6.7934,-6.777,-6.7777,-6.7782,-6.7786,0,0,0,0,0,0,0,-6.7244,-6.7271,-6.7535,-6.7464,-6.7466,-6.7448,-6.7464,-6.7594,-6.7631,-6.7533,-6.7528,-6.7548,-6.7673,-6.7719,-6.7733,-6.7936,-6.777,-6.778,-6.7787,-6.7792,-6.8292,-6.8298,0,0,0,0,0,0,-6.7234,-6.7262,-6.753,-6.754,-6.7344,-6.7459,-6.7477,-6.7545,-6.763,-6.7637,-6.7553,-6.7545,-6.7702,-6.772,-6.7739,-6.7961,-6.7782,-6.7793,-6.78,-6.8286,-6.8293,-6.83,0,0,0,0,0,0,-6.7226,-6.7259,-6.7524,-6.74,-6.7432,-6.7472,-6.7548,-6.7551,-6.7597,-6.7645,-6.7651,-6.7594,-6.7698,-6.7722,-6.7875,-6.7966,-6.7798,-6.7809,-6.8278,-6.8288,-6.8297,-6.8409,0,0,0,0,0,0,-6.7216,-6.7256,-6.7329,-6.7402,-6.7439,-6.766,-6.7554,-6.7558,-6.7618,-6.7609,-6.7685,-6.7692,-6.7696,-6.7858,-6.7887,-6.7979,-6.7818,-6.827,-6.8283,-6.8294,-6.8397,-6.8421,-6.8441,0,0,0,0,0,-6.7203,-6.7354,-6.7333,-6.7366,-6.7531,-6.7665,-6.7686,-6.7689,-6.7626,-6.7698,-6.7728,-6.769,-6.7951,-6.7874,-6.7906,-6.8003,-6.8265,-6.8279,-6.8293,-6.8387,-6.8416,-6.8441,0,0,0,0,0,0,-6.7289,-6.7363,-6.7341,-6.752,-6.7587,-6.7654,-6.7745,-6.772,-6.7805,-6.7792,-6.779,-6.7808,-6.7965,-6.7999,-6.7912,-6.8187,-6.8098,-6.8119,-6.8159,-6.8187,-6.8208,-6.8197,-6.7828,0,0,0,0,0,-6.7329,-6.7433,-6.7491,-6.7644,-6.7679,-6.7707,-6.7765,-6.7761,-6.783,-6.7857,-6.7899,-6.7966,-6.8062,-6.8126,-6.8219,-6.8401,-6.8416,-6.8484,-6.8505,-6.8523,-6.8541,-6.8639,-6.8669,-6.8347,-6.8346,-6.8346,0,0,-6.7412,-6.7465,-6.7531,-6.7662,-6.7714,-6.782,-6.7731,-6.7847,-6.7925,-6.7874,-6.8021,-6.8054,-6.8128,-6.8297,-6.8373,-6.833,-6.8634,-6.8541,-6.8555,-6.8564,-6.8656,-6.8687,-6.8714,-6.8356,-6.8354,-6.8353,0,0,-6.7618,-6.7669,-6.7801,-6.7855,-6.7934,-6.7951,-6.7983,-6.8054,-6.8074,-6.8222,-6.8185,-6.8277,-6.8445,-6.8499,-6.8548,-6.8772,-6.8739,-6.8802,-6.8917,-6.9012,-6.9037,-6.906,-6.9138,-6.9167,-6.882,-6.882,-6.8821,0,-6.7711,-6.7871,-6.7872,-6.7991,-6.8049,-6.8009,-6.8141,-6.8192,-6.8297,-6.8337,-6.8287,-6.8496,-6.8543,-6.8723,-6.8777,-6.8819,-6.8853,-6.8793,-6.9034,-6.9056,-6.9077,-6.9152,-6.9182,-6.8828,-6.8827,-6.8826,-6.8825,0,-6.7981,-6.8092,-6.8189,-6.8292,-6.8361,-6.8486,-6.8504,-6.8573,-6.8562,-6.8584,-6.8734,-6.8789,-6.889,-6.8933,-6.8923,-6.9111,-6.9081,-6.9033,-6.8944,-6.9115,-6.9186,-6.9214,-6.8838,-6.8835,-6.8833,-6.8831,0,0,-6.8246,-6.8347,-6.8383,-6.8428,-6.8512,-6.8597,-6.872,-6.882,-6.8879,-6.8952,-6.9053,-6.9195,-6.9151,-6.9207,-6.9203,-6.9286,-6.9459,-6.9228,-6.9229,-6.9268,-6.9667,-6.9702,-6.9735,-6.9437,-6.9443,-6.9447,-6.966,0,-6.8457,-6.8673,-6.8677,-6.8875,-6.8976,-6.8939,-6.9045,-6.9106,-6.913,-6.9218,-6.9242,-6.9343,-6.9278,-6.9311,-6.9392,-6.9421,-6.9539,-6.9406,-6.9529,-6.9534,-6.9512,-6.9772,-6.981,-7.0009,-6.9687,-6.9692,-6.9696,0,-6.8733,-6.8816,-6.9024,-6.9092,-6.9135,-6.9231,-6.9322,-6.9408,-6.9476,-6.9486,-6.9549,-6.9532,-6.9654,-6.9561,-6.9728,-6.9638,-6.9688,-6.971,-6.9718,-6.9729,-6.9625,-6.9789,-7.0072,-7.0102,-6.9739,-6.9736,-6.9733,0,-6.8904,-6.9068,-6.9213,-6.9253,-6.9336,-6.9404,-6.9441,-6.9504,-6.9564,-6.9643,-6.9682,-6.9774,-6.9824,-6.9895,-6.9902,-6.9834,-7.007,-6.9978,-7.0081,-7.0081,-7.0132,-7.0129,-7.0426,-7.0166,-7.0166,-7.0165,-7.0164,0,-6.9139,-6.9268,-6.9291,-6.938,-6.9522,-6.9524,-6.9664,-6.9695,-6.9751,-6.9844,-6.9817,-6.9904,-6.9909,-6.9999,-7.0005,-7.0141,-7.0164,-7.0175,-7.0175,-7.0178,-7.0176,-7.021,-7.0196,-7.0173,-7.0171,-7.017,-7.0168,0,-6.9355,-6.9375,-6.9531,-6.9597,-6.9616,-6.9718,-6.9773,-6.9857,-6.9877,-6.9995,-7.0023,-7.0054,-7.0158,-7.0172,-7.0293,-7.0297,-7.0461,-7.0447,-7.0438,-7.0436,-7.0537,-7.0527,-7.0866,-7.091,-7.0623,-7.0625,-7.0628,0,-6.9503,-6.9602,-6.9678,-6.9739,-6.978,-6.9879,-6.994,-6.9944,-7.0008,-7.0093,-7.0166,-7.0267,-7.0348,-7.0515,-7.0547,-7.0639,-7.0626,-7.0738,-7.0639,-7.0638,-7.0626,-7.062,-7.0629,-7.0757,-7.076,-7.0763,-7.0765,0,-6.9765,-6.977,-6.986,-6.9953,-7.0027,-7.01,-7.0169,-7.022,-7.0233,-7.0306,-7.0412,-7.0475,-7.0599,-7.0698,-7.0789,-7.0825,-7.0797,-7.0796,-7.0824,-7.0827,-7.0818,-7.0823,-7.049,-7.0788,-7.0786,-7.0784,-7.0783,-7.0782,-6.9951,-7.0035,-7.0102,-7.0202,-7.0255,-7.032,-7.0402,-7.0432,-7.0521,-7.0623,-7.062,-7.0736,-7.0799,-7.0918,-7.096,-7.105,-7.1013,-7.1054,-7.1064,-7.1074,-7.1084,-7.0805,-7.1066,-7.1066,-7.1065,-7.1064,-7.1064,0,-7.0209,-7.025,-7.0343,-7.044,-7.0519,-7.0487,-7.0561,-7.0628,-7.0732,-7.0794,-7.0874,-7.0995,-7.1091,-7.1131,-7.1224,-7.1288,-7.1278,-7.1313,-7.1308,-7.1316,-7.1112,-7.1078,-7.132,-7.132,-7.1319,-7.1319,-7.1319,-7.1319,-7.0353,-7.0495,-7.0508,-7.0674,-7.0713,-7.0828,-7.0873,-7.0932,-7.0981,-7.1118,-7.1198,-7.1224,-7.1276,-7.1373,-7.146,-7.1468,-7.1504,-7.1544,-7.1547,-7.1356,-7.1331,-7.1306,-7.1274,-7.1552,-7.1552,-7.1743,-7.1745,-7.1746]}]]